GPS BIII-1 (PRN 04)

Last updated on Sat Dec 13 2025 00:03:17 GMT+0000 (Coordinated Universal Time)

1 43873U 18109A 25345.78209020 .00000002 00000+0 00000+0 0 9991 2 43873 55.5668 99.5845 0037296 194.9269 337.0503 2.00553575 51312
UTC large
Height (km)
Speed (km/s)
/
Latitude / Longitude
Inclination (degrees)
Orbital Period (minutes)
Azimuth
Elevation
Range (km)
Doppler Factor

Next 0 passes for location: London (51.5072 / 0.1276)

Sorry there are no passes over London.